Regional Weather Roundup
Issued by NWS Grand Forks, ND

Home | Current Version | Previous Version | Graphics & Text | Print | Product List | Glossary On
Versions: 1 2 3 4 5 6 7 8 9 10 11 12 13 14 15 16 17 18 19 20 21 22 23 24 25 26 27 28 29 30 31 32 33 34 35 36 37 38 39 40 41 42 43 44 45 46 47 48 49 50
000
ASUS43 KFGF 270231
RWRFGF
PRAIRIE TO PINES  WEATHER ROUNDUP
NATIONAL WEATHER SERVICE EASTERN NORTH DAKOTA/GRAND FORKS ND
800 PM CST MON JAN 26 2015

 **SATELLITE DATA USED TO AUGMENT SKY COVER AT AUTOMATED STATIONS**
 *****  WEATHER ACROSS EASTERN NORTH DAKOTA  *****

CITY           SKY/WX    TMP DP  RH WIND       PRES   REMARKS
GRAND FORKS    MOCLDY    28  25  88 CALM      29.99R
GRAND FRKS AFB CLOUDY    28  25  89 E3        29.99S
DEVILS LAKE    MOCLDY    34  28  80 SW3       29.96R
FARGO          PTCLDY    30  25  81 N6        29.99S WCI  24
WAHPETON ARPT  MOCLDY    30  27  86 N6        30.00R WCI  24
$$

 ***** WEATHER ACROSS CENTRAL AND WESTERN NORTH DAKOTA  *****

CITY           SKY/WX    TMP DP  RH WIND       PRES   REMARKS
BISMARCK       PTCLDY    32  31  96 E6        29.98S
MINOT          MOCLDY    32  29  88 S6        29.93S
JAMESTOWN      CLEAR     32  29  88 SW5       29.97R
MINOT AFB      MOCLDY    33  33  99 SW7       29.93S
GARRISON         N/A     34  31  88 CALM      29.95R
WILLISTON      CLEAR     35  30  82 CALM      29.90S
DICKINSON      PTCLDY    34  29  82 S7        29.90F
HETTINGER      CLEAR     40  32  73 SE5       29.95S
$$

 *****  OTHER AIRPORT OBSERVATIONS IN OUR AREA  *****

CITY           SKY/WX    TMP DP  RH WIND       PRES   REMARKS
WALHALLA         N/A     23  23 100 CALM      29.99S
GRAFTON AIRPOR NOT AVBL
VALLEY CITY AR FAIR      30  30 100 NW3       29.98R
CANDO          FAIR      30  28  93 SW5       29.96R
CAVALIER APRT  FAIR      23  23 100 CALM      30.00R
GWINNER        MOCLDY    34  34 100 NW7       30.00R
ROLLA          FAIR      30  28  93 W6        29.94R WCI  24
 ***** THE ABOVE OBSERVATIONS ARE NON NWS ARE NOT QUALITY
       CONTROLLED AND MAY MIS-REPORT RAIN FOR SNOW...
$$

  *****  WEATHER ACROSS NORTHERN MINNESOTA  *****

CITY           SKY/WX    TMP DP  RH WIND       PRES   REMARKS
FLAG ISLAND    CLOUDY    25  21  86 NW7       29.95R WCI  17
WARROAD        CLOUDY    25  21  86 CALM      29.97R
ROSEAU         CLOUDY    27  21  80 CALM      29.97R
HALLOCK        CLOUDY    27  25  93 N7        29.99S WCI  19
THF RVR FALLS  CLOUDY    28  25  86 NW6       29.98R WCI  22
BAUDETTE       CLOUDY    26  21  81 NW9       29.93R WCI  17
WASKISH        CLOUDY    28  25  86 CALM      29.94R
CROOKSTON      CLOUDY    27  25  93 N7        30.00S WCI  19
STEPHEN NDAWN    N/A     27  25  93 N6          N/A  WCI  20
GREENBUSH NDAW   N/A     25  23  93 N8          N/A  WCI  16
$$
  *****  WEATHER ACROSS CENTRAL AND WEST MINNESOTA  *****

CITY           SKY/WX    TMP DP  RH WIND       PRES   REMARKS
FOSSTON        CLOUDY    27  25  93 NW6       29.97R WCI  20
BEMIDJI        CLOUDY    29  25  84 NW8       29.93R WCI  21
PARK RAPIDS    CLOUDY    31  25  78 N6        29.92R
ELBOW LAKE     CLOUDY    28  27  94 N13       29.97S WCI  18
WADENA         CLOUDY    28  27  93 NW8       29.94R WCI  20
DETROIT LAKES  CLOUDY    30  28  93 N9        29.97R WCI  22
MOORHEAD       PTCLDY    30  30 100 N9        30.00S WCI  22
FERGUS FALLS   CLOUDY    28  27  93 N8        30.00S WCI  20
MORRIS MN      CLEAR     32  30  93 N14       29.97R WCI  22
STAPLES        CLOUDY    30  27  86 N8        29.93R WCI  23
$$
  *****  WEATHER ELSEWHERE ACROSS MINNESOTA  *****

CITY           SKY/WX    TMP DP  RH WIND       PRES   REMARKS
DULUTH         CLOUDY    29  24  82 N12       29.87R WCI  19
INTRNTL FALLS  CLOUDY    26  21  81 NW6       29.92R WCI  19
ELY            CLOUDY    23  21  93 CALM      29.89R
CLOQUET        CLOUDY    30  25  80 N10G16    29.89R WCI  21
WHEATON        CLEAR     28  27  93 N6        30.02R WCI  22
BRAINERD       CLOUDY    33  27  78 N12       29.91R WCI  24
HIBBING        CLOUDY    29  21  72 N10       29.91R WCI  20
ALEXANDRIA     CLOUDY    30  27  88 NW9       29.95R WCI  22
SAINT CLOUD    CLOUDY    35  28  75 NW9       29.90R
MINNEAPOLIS    CLOUDY    38  29  70 NW13      29.90R
$$

  *****  WEATHER ACROSS SOUTH DAKOTA  *****

CITY           SKY/WX    TMP DP  RH WIND       PRES   REMARKS
SIOUX FALLS    CLEAR     35  31  85 NW7       29.99R
BROOKINGS      NOT AVBL
WATERTOWN      CLEAR     32  29  88 N9        29.97R WCI  24
HURON          PTCLDY    33  31  92 NW7       29.99F
SISSETON         N/A     33  31  92 N8        29.98R
ABERDEEN       CLEAR     34  30  85 NW6       30.01R
MITCHELL       CLEAR     40  33  76 NW5       30.01S
PIERRE         PTCLDY    37  28  70 E5        29.98R
MOBRIDGE       PTCLDY    35  30  82 CALM      29.95F
RAPID CITY     CLEAR     45  28  51 CALM      30.00S
$$

  *****  SOME WEATHER IN NEARBY STATES *****

CITY           SKY/WX    TMP DP  RH WIND       PRES   REMARKS
GLASGOW MT     CLEAR     40  34  79 CALM      29.87S
GREAT FALLS MT FAIR      50  30  46 SW14      29.92R
CHEYENNE WY    CLEAR     46  21  37 W13       30.22S
SCOTTSBLUFF NE CLEAR     41  31  67 NW6       30.11S
OMAHA NE       PTCLDY    44  34  67 NW8       29.99S
DES MOINES IA  MOCLDY    45  36  70 NW9       29.95R
DAVENPORT IA   CLOUDY    32  29  88 CALM      29.87R
CHICAGO IL     FRZ DRZL  25  22  88 S7        29.90R FOG     WCI  17
EAU CLAIRE WI  LGT SNOW  27  25  92 CALM      29.87R FOG
LA CROSSE WI   CLOUDY    30  26  85 S3        29.86R
$$

  *****  SOME NATIONAL WEATHER *****

CITY           SKY/WX    TMP DP  RH WIND       PRES   REMARKS
LA GUARDIA NY  LGT SNOW  26  22  84 NE22G32   29.78F FOG     WCI  12
RALEIGH NC     LGT RAIN  43  39  86 N6        29.68S
ATLANTA GA     PTCLDY    36  27  69 NW10      29.94R
NEW ORLEANS LA CLEAR     49  36  61 W7        30.11R
OKLAHOMA CITY  CLEAR     57  33  40 CALM      30.07R
ALBUQUERQUE NM PTCLDY    53  26  35 N6        30.33R
SALT LAKE CITY FAIR      38  33  82 CALM      30.24R
LOS ANGELES CA LGT RAIN  59  54  83 E7        30.06F
BOISE ID       FAIR      37  33  85 CALM      30.16F
SEATTLE WA     FAIR      55  46  71 S6        29.94R
$$

*** WEATHER ACROSS MANITOBA...SASKATCHEWAN AND ONTARIO ***
                ***ONTARIO***

CITY           SKY/WX    TMP DP  RH WIND       PRES   REMARKS
GERALDTON      FLURRIES  19  16  86 S8        29.94R WCI   9
THUNDER BAY    FLURRIES  21  21 100 NE3       29.92R
SIOUX LOOKOUT  CLOUDY    19  19 100 CALM      29.88R
TORONTO        CLOUDY    14   1  57 NE13      30.01S WCI   0
BIG TROUT LK   CLEAR      0  -2  92 S2        29.87F
PICKLE LAKE    FLURRIES  16  12  86 S2        29.86R
DRYDEN         CLOUDY    21  21 100 NW6       29.90R WCI  14
KENORA         FLURRIES  19  18  93 NW2       29.92S
$$
                *** MANITOBA***

CITY           SKY/WX    TMP DP  RH WIND       PRES   REMARKS
BRANDON        PTCLDY    25  23  93 NW2       29.93R
DAUPHIN        CLEAR     23  21  93 SW5       29.89F WCI  17
ISLAND LAKE    FLURRIES  14  10  85 SW3       29.86S
PILOT MOUND      N/A     25  25 100 SE6         N/A  WCI  18
THE PAS        PTCLDY    19  16  86 SE9       29.80S WCI   9
THOMPSON       FLURRIES  14  10  85 SW6       29.76F WCI   5
WINNIPEG       PTCLDY    21  19  93 SW3       29.98S
LYNN LAKE      CLOUDY    23  23 100 SW8       29.65F FOG     WCI  14
CHURCHILL      MOCLDY    -2  -6  84 S12       29.70F WCI -20
GILLAM         PTCLDY     5   1  85 SW7       29.79F WCI  -7
$$
                ***SASKATCHEWAN***

CITY           SKY/WX    TMP DP  RH WIND       PRES   REMARKS
ESTEVAN        PTCLDY    32  30  93 S6        29.90S
KINDERSLEY     PTCLDY    30  28  93 SE3       29.79F
LLOYDMINSTER   CLOUDY    36  30  80 W12       29.79S
PRINCE ALBERT  PTCLDY    34  28  80 SW9       29.78S
REGINA         CLEAR     32  30  93 SE9       29.86F WCI  24
YORKTON        CLEAR     28  27  93 S9        29.85F WCI  20
N. BATTLEFORD  CLOUDY    34  30  86 N5        29.82S
LA RONGE       MOCLDY    25  25 100 SW5       29.73R WCI  19
SASKATOON      MOCLDY    34  28  80 CALM      29.83R
SWIFT CURRENT  CLEAR     36  30  80 S6        29.80F
$$
NOTE: THESE ARE AUTOMATED STATIONS WITH LIMITED QUALITY CONTROL
      "FAIR" INDICATES FEW OR NO CLOUDS BELOW 12,000 FEET WITH NO
      SIGNIFICANT WEATHER AND/OR OBSTRUCTIONS TO VISIBILITY.
      SKY/WX - SKY CONDITION AND SIGNIFICANT WEATHER.
      TMP - AIR TEMPERATURE.    DP   - DEWPOINT TEMPERATURE.
      RH  - RELATIVE HUMIDITY.  PRES - PRESSURE.
      HX  - HEAT INDEX.         WCI  - WIND CHILL INDEX.
$


USA.gov is the U.S. government's official web portal to all federal, state and local government web resources and services.